Theta_e
301 290 288 288 290 294 296 297 298 301 299 298 295 294 292 292 293 297 298 299 300 296 293 294 294 294 294 297 299 300 300 309 311 310 311 312 312 314 315 317 317 317 318 322 323 324 323 325 324 323 326 327 328 329 328 327 328 329 330 328 324 325 326 326 322 319 318 317 317 317 315 317 320 321 322 321 319 318 319 321 323 324 325 325 329 333
301 290 290 294 297 297 302 303 303 300 301 298 295 293 291 292 290 296 296 299 301 296 294 295 295 294 295 296 298 300 299 304 309 309 310 310 311 313 314 315 317 317 320 321 321 322 322 323 324 322 325 326 325 326 327 326 329 328 330 327 325 324 324 324 323 321 320 321 320 317 316 317 319 319 318 317 318 321 323 324 324 324 323 323 324 326
291 290 294 298 301 305 304 302 302 299 297 296 292 291 290 291 295 298 298 298 299 298 293 294 292 293 296 298 299 300 300 300 308 309 310 310 309 310 313 314 316 316 316 317 319 320 320 321 323 320 323 325 326 326 326 327 329 329 329 326 325 324 323 323 323 323 321 321 322 319 316 318 317 318 319 318 320 322 321 320 321 320 321 322 319 319
290 292 297 300 302 302 302 300 299 298 297 292 290 289 286 292 290 287 296 299 302 297 294 294 293 294 297 298 299 301 301 302 304 308 310 313 310 310 312 314 315 315 314 315 316 318 317 319 321 318 322 323 325 325 325 327 328 330 328 325 324 324 324 324 324 323 320 319 319 319 318 319 319 318 320 319 319 319 319 319 320 320 319 319 319 321
292 296 301 302 301 301 299 298 296 292 288 293 295 291 290 291 292 294 295 303 304 301 301 294 291 290 293 294 295 298 302 305 303 303 303 304 309 311 314 314 316 315 313 314 315 316 315 316 319 317 323 322 324 324 324 326 328 331 329 325 324 323 324 323 325 321 318 317 316 316 316 318 317 318 316 315 315 317 321 320 319 320 321 321 321 320
294 300 303 299 299 300 297 293 296 295 288 289 294 295 293 294 293 296 298 295 289 287 297 295 284 281 288 293 294 296 298 299 300 299 300 301 302 309 311 312 315 316 313 315 314 315 315 316 318 318 323 322 324 323 324 327 326 329 329 326 323 322 323 323 321 321 318 315 313 312 311 311 313 313 312 312 314 315 316 317 318 319 320 320 319 319
294 302 303 300 299 297 297 295 297 297 288 289 290 299 297 295 294 294 297 292 284 282 292 298 285 280 286 291 293 295 296 296 299 299 300 301 302 305 311 313 314 313 311 314 315 315 313 316 319 320 323 322 322 323 325 328 327 327 328 327 324 323 322 324 322 322 320 315 313 312 312 313 313 312 313 315 317 317 317 318 318 319 320 321 319 317
298 297 297 298 298 296 293 290 296 297 291 288 298 298 297 295 294 297 297 293 288 295 299 298 290 283 283 289 294 296 295 295 297 298 299 301 301 302 310 312 312 312 313 315 315 315 315 316 319 320 322 322 322 322 324 326 325 324 324 326 324 323 323 324 322 321 320 316 313 313 313 315 315 315 314 316 317 318 319 318 317 318 316 315 315 314
297 297 296 296 296 292 289 293 297 297 293 291 299 299 296 295 296 297 294 290 290 290 284 290 295 284 282 288 295 296 292 293 295 296 298 300 300 302 304 311 312 313 314 315 315 315 315 315 317 321 321 322 322 323 323 324 324 324 323 324 324 324 322 323 322 321 318 317 314 313 315 317 316 315 316 317 318 318 318 317 316 314 312 312 312 312
300 299 298 298 294 291 296 296 296 298 292 296 299 299 298 297 297 297 292 291 289 286 280 288 292 283 281 288 290 293 292 293 294 297 298 299 301 302 303 310 312 313 314 315 315 314 314 315 317 320 322 321 322 323 323 323 323 323 323 324 324 324 323 323 321 320 318 317 316 314 316 315 315 315 314 315 316 317 317 315 314 313 312 312 313 313
297 305 304 299 294 296 296 296 298 298 297 301 299 296 295 295 293 292 292 289 284 280 281 290 292 289 280 284 287 290 292 295 295 298 298 300 302 303 303 304 308 311 313 315 314 315 314 316 315 318 319 320 320 320 321 322 323 323 323 323 323 324 324 323 321 319 318 316 317 316 317 315 313 313 314 314 314 315 313 313 313 312 313 312 313 314
297 298 297 298 300 300 298 295 299 297 298 298 295 293 290 288 291 289 287 286 280 275 285 291 292 293 281 283 290 294 296 297 296 297 298 298 301 302 303 304 304 306 310 312 312 312 313 315 318 317 318 318 318 319 320 321 322 322 322 322 322 323 324 323 320 319 318 316 317 317 316 315 314 314 315 314 314 313 312 313 313 313 312 313 313 312
293 293 297 299 303 297 295 296 290 294 294 294 291 287 281 279 280 278 280 278 278 277 286 292 293 288 284 287 291 294 296 298 299 298 299 300 301 302 303 303 304 309 312 312 312 313 314 314 313 315 317 318 318 318 319 320 320 321 322 322 322 322 321 322 320 319 318 316 317 318 316 315 316 315 314 314 314 313 313 314 313 311 311 311 312 312
287 295 295 297 298 299 295 287 287 288 289 290 288 285 280 278 277 273 277 279 280 285 291 292 294 285 289 291 295 295 298 300 299 300 301 301 301 301 302 303 306 311 313 313 314 314 315 315 316 317 314 318 319 319 319 320 321 321 322 322 322 321 322 322 320 320 319 316 317 318 316 316 317 315 315 314 314 314 315 315 313 312 312 311 311 312
280 282 289 295 291 297 295 292 290 289 289 288 292 289 284 281 280 273 277 273 275 280 286 294 286 281 283 288 299 299 300 301 302 303 302 302 302 301 302 307 309 310 312 314 314 314 314 315 315 318 321 317 318 321 320 320 320 320 320 321 320 321 322 322 321 321 322 321 319 320 318 317 317 316 315 315 316 315 315 315 314 313 313 313 313 313
288 286 293 299 298 298 294 296 296 294 290 291 293 293 286 282 285 278 280 282 282 279 280 282 282 287 288 297 301 301 299 300 303 303 303 302 303 304 305 306 307 309 311 313 313 314 314 315 315 320 320 319 319 319 319 319 318 318 319 319 320 320 320 321 322 321 322 322 320 319 318 317 318 317 316 316 317 316 316 316 315 314 314 314 314 314
289 283 294 297 299 296 295 298 297 296 282 287 290 285 289 294 291 282 282 287 283 281 278 282 284 288 295 293 298 299 297 298 301 301 301 301 303 303 304 305 306 308 310 311 312 312 312 313 316 319 319 320 320 319 317 317 317 316 318 319 319 320 321 321 321 322 323 323 321 320 318 317 317 317 316 316 316 316 316 317 316 315 315 315 315 315
283 284 293 294 294 296 298 298 297 297 295 290 285 290 296 296 294 284 280 281 280 276 277 284 279 282 286 281 294 296 295 296 297 298 299 300 302 303 304 305 307 308 309 310 311 311 312 312 314 316 319 319 319 318 316 316 317 317 318 320 320 320 319 321 321 323 323 322 321 320 318 316 317 317 316 316 315 317 317 315 316 317 316 316 316 315
292 282 288 294 294 296 299 297 294 296 297 292 290 297 287 281 282 285 281 275 275 274 278 281 284 283 285 284 291 293 294 294 295 297 297 299 301 303 305 306 307 308 308 309 310 310 311 311 313 314 316 319 319 321 318 317 317 317 317 320 320 319 320 320 322 323 323 323 323 322 318 317 316 316 316 318 316 317 317 314 315 317 318 317 316 315
294 283 284 294 293 295 295 292 282 288 293 296 296 290 294 287 284 280 281 282 282 275 276 276 284 279 292 288 292 294 294 297 295 295 297 299 301 303 304 305 306 306 307 308 309 310 310 311 312 313 314 315 314 315 320 319 318 317 318 320 319 318 319 319 320 321 321 322 324 323 320 320 318 318 316 319 317 317 316 315 315 315 318 317 316 315
285 290 279 288 295 293 283 289 285 287 286 288 288 286 289 289 293 288 287 284 280 277 277 276 274 282 289 295 296 296 296 296 296 298 298 300 302 303 304 305 305 306 306 307 308 309 310 310 310 311 312 314 314 313 313 317 320 321 320 319 318 317 317 317 319 320 320 320 323 322 321 320 320 319 319 320 317 317 317 316 316 315 318 318 316 315
284 283 281 283 286 284 287 293 293 293 292 291 289 287 287 288 283 279 279 290 288 280 277 276 275 283 293 301 298 296 296 299 299 300 299 303 303 303 304 304 305 305 306 306 307 308 309 309 310 311 313 313 312 311 311 312 314 317 319 319 318 317 317 319 318 320 320 321 320 319 321 321 321 320 319 318 318 319 319 319 318 319 316 315 315 316
292 290 285 281 285 287 291 295 297 296 294 293 291 289 291 291 287 280 278 283 288 287 288 282 279 281 293 299 299 299 298 300 300 301 301 303 303 303 304 304 305 305 306 306 306 307 308 308 309 311 311 311 310 309 309 310 311 312 313 316 318 319 318 319 318 319 320 320 320 319 319 321 322 323 320 319 318 318 319 319 318 318 317 317 318 318
304 284 282 284 288 290 293 294 295 295 293 290 291 293 291 287 288 284 283 286 283 285 282 281 279 283 293 299 300 298 298 299 300 300 302 302 302 303 303 303 304 304 305 306 306 307 307 308 308 309 309 310 310 308 308 308 309 311 312 314 314 314 316 318 320 320 320 320 320 320 321 321 322 321 320 320 320 319 318 316 316 316 317 317 318 320
284 287 284 280 278 279 283 288 288 292 292 288 286 289 291 291 293 292 291 288 281 283 284 279 274 284 292 299 296 297 297 298 301 302 301 301 302 302 302 303 303 304 304 305 306 306 306 306 307 307 307 307 308 309 308 308 308 309 311 312 313 314 316 317 318 319 320 319 318 319 319 320 322 321 320 318 317 316 317 317 316 316 317 318 319 321
287 287 284 278 274 273 272 274 276 281 284 287 292 290 292 292 290 287 281 282 279 283 287 281 281 287 293 296 295 296 296 297 301 303 303 305 305 304 303 303 303 303 303 304 304 305 305 306 306 306 305 306 307 308 307 307 308 309 310 311 312 314 314 315 317 317 318 318 318 317 317 319 320 321 320 318 317 316 316 316 316 315 317 317 318 317
288 291 287 283 280 278 280 284 290 290 287 282 287 289 289 291 292 289 285 281 280 282 280 285 286 285 289 291 292 294 294 294 297 298 300 302 304 303 305 303 303 302 303 303 302 302 302 302 302 304 304 305 305 305 305 305 306 307 308 308 311 313 313 313 314 314 314 314 313 314 315 316 316 317 317 318 318 318 319 318 317 317 317 318 318 318
287 282 287 288 287 286 287 287 289 289 286 286 286 286 288 288 289 286 281 280 286 281 278 285 288 285 287 290 293 293 295 295 295 295 299 301 302 303 305 305 307 303 302 302 302 302 302 302 302 302 302 304 304 304 304 304 305 306 305 306 308 309 311 313 311 311 311 311 311 312 313 314 314 316 317 316 316 316 317 318 318 318 317 316 316 316
286 279 286 288 287 287 288 288 289 288 288 288 287 287 287 288 287 284 283 287 288 281 279 283 287 285 287 290 292 293 295 294 295 296 298 302 303 303 302 303 303 302 302 302 302 302 302 302 302 301 302 303 303 303 303 304 304 304 305 305 305 307 308 308 308 308 308 308 309 309 310 311 311 312 315 316 315 314 314 314 314 316 317 316 315 316
286 281 288 288 286 287 288 289 289 288 287 287 287 287 288 287 286 286 286 288 288 286 286 287 286 284 289 290 292 294 295 295 296 298 298 298 300 303 302 302 303 306 307 305 303 303 302 303 303 303 303 302 304 304 304 304 304 304 304 304 304 304 306 307 306 306 306 307 307 308 309 310 310 310 310 312 312 313 314 313 312 313 315 316 316 315
288 283 292 289 282 285 288 289 289 288 287 285 286 287 287 287 287 287 287 287 287 286 287 284 282 283 290 292 293 295 296 296 297 297 296 297 297 298 299 300 300 301 303 304 303 303 303 303 302 302 302 302 302 302 303 303 303 303 302 303 303 303 303 304 303 303 302 304 305 307 308 308 310 310 310 310 311 311 315 316 316 316 315 315 316 317
289 283 290 286 279 278 287 287 287 288 286 285 284 285 286 285 282 285 283 288 284 283 283 283 283 282 288 292 293 294 295 295 294 295 295 296 296 296 296 298 298 298 300 304 305 305 303 302 301 301 301 302 302 302 302 302 303 303 302 302 302 301 302 301 302 301 301 302 302 303 305 305 305 305 306 307 310 311 312 313 314 314 314 316 316 317
288 283 281 281 279 277 285 286 286 285 282 279 278 285 288 287 288 288 288 289 289 287 282 281 281 289 289 292 291 292 292 293 293 294 294 295 295 295 296 297 298 299 300 302 303 304 304 303 302 301 301 301 301 301 303 303 303 302 302 301 302 302 302 302 303 302 302 302 302 301 303 302 302 303 303 305 305 305 306 308 309 310 310 313 316 316
288 287 282 284 277 277 285 285 284 278 271 273 285 291 291 287 287 285 284 287 289 289 284 287 287 290 290 289 289 289 291 292 293 294 296 295 293 295 297 298 299 299 299 301 304 304 303 302 301 300 300 300 300 300 300 303 302 303 303 303 302 301 302 304 303 302 302 303 302 302 302 303 302 302 303 304 304 304 305 306 307 309 310 311 312 313
285 285 281 283 277 277 280 279 274 269 271 283 289 291 293 291 291 289 289 289 289 289 290 288 288 288 290 290 290 290 291 293 294 294 295 295 295 294 296 298 299 299 299 299 299 300 300 301 301 301 300 299 299 299 299 301 302 302 303 303 302 302 302 303 304 303 303 302 303 302 302 303 302 301 302 302 302 302 303 304 304 305 306 309 309 309
281 281 281 281 280 279 276 275 267 268 283 289 289 290 292 291 289 287 285 286 288 288 288 287 288 289 289 290 290 291 291 293 294 294 294 295 296 294 294 298 299 300 300 301 301 300 301 301 300 300 300 301 301 301 301 300 302 301 301 302 302 302 302 301 301 303 303 302 302 302 302 303 301 301 301 302 301 302 302 302 302 303 303 306 306 307
287 284 282 279 280 272 273 272 274 281 281 283 282 284 286 283 284 283 278 282 287 287 287 286 287 288 289 289 290 290 291 291 290 291 294 295 295 296 295 295 299 301 303 304 304 304 305 303 303 304 304 304 303 302 301 301 300 300 300 300 301 301 301 300 300 300 300 300 300 300 303 303 302 301 300 300 300 300 300 301 303 302 303 305 304 305
288 283 281 279 278 279 274 273 273 272 269 277 286 290 291 292 291 290 284 280 287 288 289 287 286 287 287 288 288 289 290 287 285 286 292 294 295 295 296 296 296 295 297 299 306 306 306 305 307 304 303 302 302 301 302 300 300 300 299 300 300 298 299 300 299 299 299 299 299 300 302 302 301 301 301 299 300 300 300 301 302 302 302 304 303 303
291 290 285 282 279 278 277 272 271 269 272 281 284 288 290 290 290 290 282 278 285 287 288 288 286 287 286 286 287 288 285 281 281 286 291 293 294 294 294 295 295 295 295 296 298 296 297 300 304 305 304 302 301 301 301 302 301 300 299 298 298 299 298 298 298 299 300 300 300 299 300 301 301 301 300 300 300 301 301 301 301 300 301 302 302 302
286 283 283 280 279 279 278 275 274 278 277 283 287 287 288 290 290 281 273 274 284 286 287 287 286 286 286 287 287 285 283 278 281 286 291 292 293 293 293 294 294 295 295 296 296 296 296 296 297 296 298 301 299 302 300 300 300 300 299 299 298 297 296 297 298 298 300 300 299 300 299 301 300 300 300 300 300 300 301 300 302 301 300 300 301 303
282 282 282 278 278 278 279 273 274 276 283 288 287 289 289 292 286 274 271 278 285 286 287 286 286 286 287 286 286 282 286 288 288 289 291 292 292 293 293 294 294 295 295 296 296 297 295 295 296 296 296 296 297 299 301 301 299 298 297 297 298 297 298 299 299 299 299 300 300 299 299 298 299 299 299 300 301 302 301 301 300 300 300 299 300 300
281 280 281 280 276 275 275 274 275 278 283 287 288 289 290 286 275 274 283 287 288 287 288 287 286 286 286 286 286 286 287 289 290 290 290 291 291 291 292 293 293 294 295 296 296 297 296 295 295 294 295 295 297 300 300 299 298 298 297 297 296 297 299 299 299 298 299 299 298 299 299 299 298 298 302 301 301 301 301 300 300 300 300 299 300 299
281 278 277 277 279 277 275 272 273 270 282 290 290 287 288 280 280 286 288 290 290 289 287 286 286 286 286 285 286 286 286 287 288 288 289 289 290 290 291 291 291 291 292 292 293 295 295 294 293 293 293 295 295 296 296 296 295 294 294 294 295 298 299 299 299 299 299 298 298 298 298 298 299 299 304 302 300 300 300 299 300 300 299 299 299 299
287 278 279 279 281 275 275 273 274 279 283 291 288 280 284 286 288 288 287 284 287 287 286 285 286 287 287 286 285 285 286 286 286 286 287 288 288 289 290 291 291 291 291 292 293 293 294 293 294 294 293 294 295 295 296 295 294 294 294 294 296 296 298 298 299 299 298 298 298 298 297 298 298 298 298 298 299 299 298 298 299 300 301 299 299 298
284 281 281 276 282 278 277 279 286 287 286 288 288 288 288 289 289 288 287 286 285 285 287 285 286 287 287 287 287 286 286 286 286 286 286 287 287 288 288 289 290 290 290 290 291 292 293 293 294 295 295 295 295 295 295 295 295 294 293 294 296 296 297 297 298 298 298 298 299 297 298 298 298 298 297 298 298 298 298 297 299 298 299 301 299 297
285 285 285 281 279 284 285 285 286 286 286 286 286 287 287 287 288 288 287 285 286 287 286 286 287 287 288 288 286 286 286 286 286 287 287 288 288 289 289 289 290 290 290 291 291 291 291 292 292 292 293 294 295 295 295 295 295 294 294 295 296 296 297 297 297 297 297 297 297 298 299 298 297 298 297 297 297 298 298 298 298 300 299 300 298 297
283 283 281 276 280 277 272 283 283 283 284 285 286 288 289 289 288 288 287 287 287 287 288 288 287 287 287 287 287 287 287 288 288 288 289 289 289 290 290 290 290 290 290 290 290 291 291 291 291 291 291 291 292 293 295 295 296 296 296 296 298 298 298 297 297 296 296 297 297 297 298 298 297 296 296 296 297 297 298 300 300 300 298 297 296 296
278 284 279 281 279 274 275 281 283 285 284 286 286 285 285 287 288 288 288 288 288 288 288 289 289 288 289 288 288 288 288 289 288 288 289 289 289 290 290 291 291 291 291 291 291 292 291 291 290 290 291 292 292 293 295 295 295 296 296 296 297 297 297 296 296 295 295 296 296 296 296 296 293 295 296 295 295 296 299 299 299 299 297 294 294 295
283 285 276 280 277 279 282 284 284 285 285 285 287 287 287 287 287 288 289 289 289 289 288 289 289 289 289 289 289 289 288 289 289 289 289 290 290 290 291 291 291 291 291 291 292 292 291 291 291 291 292 292 293 293 293 293 294 296 296 296 295 295 294 293 292 293 293 295 296 295 294 294 293 294 293 291 289 287 287 290 295 298 294 292 292 296
281 277 280 278 273 273 275 279 282 276 276 282 285 286 287 288 288 288 288 288 288 288 289 288 289 290 290 290 289 289 288 289 289 289 289 290 290 291 291 291 291 291 292 292 293 292 292 292 292 292 292 292 292 293 293 293 294 295 295 295 295 295 294 293 293 292 292 293 293 294 294 294 293 294 293 292 289 289 289 286 287 289 292 290 292 294
279 281 279 274 274 273 281 284 284 283 282 284 285 287 288 289 288 288 288 288 288 289 289 288 288 288 288 289 290 290 289 289 289 290 290 290 290 291 291 291 291 291 291 292 291 291 292 292 293 292 291 292 292 293 293 293 294 295 295 295 295 295 295 295 293 292 292 291 291 292 294 293 292 292 294 292 291 290 289 287 288 288 288 289 290 291
Wind_Speed
3 4 5 8 8 9 9 6 5 3 2 3 5 6 8 10 5 7 11 7 7 4 6 7 8 5 4 9 10 6 6 16 16 14 9 8 9 8 8 11 12 14 13 11 10 9 10 9 9 7 7 7 9 11 11 10 9 9 8 8 8 6 6 7 6 5 5 4 4 3 6 7 7 8 6 6 6 6 5 4 4 4 4 4 4 5
4 5 8 9 9 11 6 3 2 3 3 3 4 6 10 8 6 7 5 4 2 6 1 2 2 5 7 2 7 3 7 16 18 17 15 13 11 11 13 12 11 8 7 11 8 8 9 7 8 7 8 7 11 9 12 11 10 9 8 8 8 6 5 5 6 6 5 4 6 4 5 6 7 7 7 6 5 6 5 5 4 2 3 3 3 4
6 8 9 11 9 4 2 0 2 4 4 4 3 6 6 9 3 6 6 4 4 5 1 4 4 5 4 7 6 2 6 8 17 20 18 17 13 10 12 10 11 9 11 10 12 10 12 9 9 9 8 10 11 10 11 10 10 8 8 7 7 7 6 5 4 3 3 1 2 5 4 8 4 4 6 7 5 5 6 5 5 5 3 2 3 3
4 7 12 9 6 3 0 4 4 4 2 2 4 3 6 7 4 2 3 5 3 3 0 4 6 8 6 6 9 3 4 2 10 12 14 15 18 16 14 13 14 13 13 13 13 14 11 11 10 8 9 11 8 9 8 9 10 8 7 6 7 8 6 5 4 4 5 5 7 6 7 6 7 6 5 5 5 5 6 5 4 4 4 4 3 3
9 9 7 7 7 4 2 1 1 1 4 3 4 3 5 9 3 4 4 1 1 4 3 4 5 7 5 5 7 7 0 4 6 11 11 12 13 14 12 11 16 16 15 14 14 13 11 11 11 12 10 10 11 10 9 10 9 8 9 7 7 8 6 4 6 8 7 9 9 7 6 7 7 6 6 6 6 5 5 5 5 4 5 6 6 6
10 5 6 4 2 2 3 2 1 2 1 2 4 5 6 8 5 2 3 6 5 3 1 2 2 4 5 5 8 7 1 0 4 6 6 5 5 15 17 16 14 15 14 17 16 16 14 12 7 8 9 10 10 11 9 10 8 9 9 8 7 4 4 5 6 9 8 9 10 9 9 7 7 6 6 6 7 6 5 5 4 6 6 6 6 6
5 1 2 3 3 4 2 1 1 4 5 0 4 2 4 9 8 7 2 3 1 1 5 5 6 3 5 5 5 8 6 2 4 6 4 6 8 12 18 15 15 15 8 9 12 10 9 10 10 11 11 12 11 10 9 8 8 8 8 9 9 6 3 4 4 6 8 7 7 8 8 8 8 8 3 4 5 7 6 6 5 4 5 6 7 6
2 5 3 5 2 1 3 4 2 1 1 3 1 3 5 6 5 3 2 2 3 2 2 5 5 3 4 9 4 4 3 3 3 4 8 6 6 10 13 11 13 11 12 15 15 15 14 16 16 15 14 13 13 10 8 8 8 10 9 7 5 4 4 3 4 4 7 7 6 7 7 6 5 6 7 7 6 6 5 6 6 6 6 6 6 6
2 2 4 2 2 3 4 3 5 6 4 5 4 5 4 3 3 4 5 3 2 2 3 2 3 1 3 7 8 8 7 6 7 5 5 5 5 8 14 12 14 16 18 17 15 15 13 14 13 13 13 12 12 10 10 10 10 9 8 7 8 7 2 3 4 5 5 7 7 8 7 6 5 7 7 6 6 6 6 6 5 7 6 7 6 6
2 4 5 6 4 2 3 4 6 4 5 6 7 1 2 6 5 5 2 1 3 2 3 2 0 1 2 3 5 4 4 1 4 5 6 5 6 6 7 13 7 4 4 5 8 8 9 12 11 12 12 9 11 11 8 6 7 8 7 7 6 10 6 4 4 5 5 6 7 6 6 9 7 7 6 6 7 5 5 7 7 6 6 6 6 5
4 1 4 3 3 4 2 4 7 8 11 5 5 2 0 0 3 4 4 1 3 1 3 3 4 2 2 4 6 1 2 1 4 1 4 8 9 10 11 11 7 8 7 8 5 6 6 2 1 5 9 10 6 6 8 7 7 6 7 7 3 5 9 5 6 6 8 7 6 6 9 10 10 9 9 8 5 6 6 7 6 6 6 6 6 6
3 1 1 2 6 1 1 4 3 4 3 1 2 1 3 5 1 2 3 3 1 3 2 2 4 4 4 2 4 2 4 3 7 4 4 5 11 11 11 10 10 10 10 8 7 5 4 4 5 6 5 7 8 6 8 6 6 6 6 5 4 3 5 6 5 5 7 7 5 6 8 10 10 10 9 9 8 8 8 7 7 6 6 6 6 6
6 5 1 2 4 6 3 1 6 5 4 2 3 6 4 2 3 2 2 2 1 2 2 2 10 4 4 6 2 2 1 3 4 2 8 11 11 13 10 10 10 11 11 9 6 5 5 5 4 5 6 5 6 9 9 9 8 8 9 11 12 8 3 9 8 6 6 5 4 7 9 9 9 10 10 9 8 7 8 7 7 6 6 6 6 6
4 5 5 2 1 4 3 3 2 4 5 3 2 2 2 0 0 2 1 1 2 3 2 5 3 2 4 3 3 4 5 2 6 9 8 10 10 11 10 8 11 11 10 8 7 6 4 4 3 1 3 8 10 10 9 11 13 12 13 12 11 6 1 3 4 4 4 6 4 5 8 8 9 10 10 9 9 8 7 7 8 7 7 6 6 6
2 4 5 1 3 7 3 5 5 4 1 5 2 6 7 6 3 2 1 1 3 3 3 1 4 2 1 5 8 14 4 8 8 11 7 7 7 6 8 12 12 11 8 8 7 6 4 5 4 4 6 1 8 13 13 12 12 7 6 6 6 5 6 3 5 4 4 5 7 3 6 7 8 9 9 9 8 8 8 8 8 7 7 7 6 6
6 4 5 7 3 9 4 5 4 1 3 2 5 4 4 4 4 2 2 0 1 1 3 3 3 4 1 4 8 3 7 8 12 10 9 7 8 12 11 11 9 8 9 7 7 7 6 4 4 5 6 8 7 7 7 6 6 8 9 9 9 7 6 7 4 7 7 2 7 5 5 7 9 8 8 8 7 7 8 9 9 9 8 7 7 6
1 4 2 4 8 9 5 3 2 4 1 3 4 0 2 3 8 2 2 1 3 3 4 2 3 4 1 3 8 2 4 6 9 9 9 6 8 10 10 9 8 8 9 8 7 5 5 6 4 4 5 8 8 9 10 11 11 4 6 9 10 9 8 5 3 8 7 6 8 7 5 6 8 9 9 9 8 8 8 9 9 9 8 8 8 7
2 7 4 6 2 3 3 1 2 2 2 1 0 3 1 2 5 4 2 0 1 3 4 3 3 2 2 2 2 1 3 4 7 7 7 8 10 11 8 8 8 9 8 6 5 4 5 6 6 4 6 6 9 9 10 13 15 15 11 9 12 11 10 8 4 5 8 8 10 8 6 6 7 8 8 9 9 8 8 7 8 8 8 9 9 8
2 5 4 4 4 4 2 3 3 1 2 1 5 1 2 1 1 3 3 2 1 1 2 2 2 2 4 3 3 3 6 5 6 7 8 10 12 11 11 10 10 9 7 6 4 5 6 7 8 8 6 7 7 9 11 9 10 11 8 8 11 13 13 14 10 7 7 8 8 8 7 7 6 7 6 7 7 6 9 8 7 10 10 9 8 8
1 1 5 3 6 6 6 3 3 2 5 4 4 5 1 3 2 1 5 2 6 3 0 4 1 0 1 2 4 1 5 1 3 4 7 10 11 11 9 10 10 9 8 5 4 4 4 5 6 7 8 10 9 7 6 13 11 13 12 10 10 11 12 14 12 9 11 10 8 7 6 5 6 6 6 7 7 6 8 8 7 9 10 10 8 8
2 2 1 5 7 8 3 1 3 3 1 4 1 2 2 1 2 3 3 2 1 2 2 2 2 5 6 3 8 2 4 3 3 4 6 5 9 10 11 11 9 9 8 5 4 4 4 5 6 6 7 7 8 9 9 6 8 11 10 10 11 13 12 12 11 9 8 8 7 7 7 7 6 5 5 6 8 7 8 7 7 8 9 9 8 8
1 2 1 4 6 4 7 6 6 3 2 1 2 2 4 1 3 3 6 2 2 1 0 1 2 5 7 2 4 6 3 5 6 9 6 4 5 8 10 9 9 8 7 7 5 4 4 4 5 6 7 7 8 9 10 8 8 7 6 8 7 7 8 8 8 6 5 6 6 3 5 6 5 6 6 7 7 6 5 6 6 7 7 5 4 8
2 1 2 1 2 5 8 12 11 8 5 4 2 0 3 6 7 5 2 4 3 3 2 3 1 5 5 3 6 9 11 3 6 12 9 7 3 7 8 9 8 8 8 7 6 5 4 4 5 6 7 7 8 7 7 7 8 8 8 6 4 4 5 5 4 3 2 4 10 10 6 7 7 6 6 7 6 7 7 7 8 9 10 8 6 2
6 1 2 2 3 5 8 9 11 10 8 7 3 2 1 0 3 6 4 5 3 2 2 2 2 2 4 3 4 6 10 18 11 8 16 9 6 7 8 8 9 8 7 6 5 4 5 5 5 6 5 6 6 6 6 6 6 7 7 7 8 8 5 4 6 6 7 10 1 9 6 5 5 7 7 7 6 8 6 5 4 5 8 8 6 7
1 2 4 0 2 5 7 6 7 9 7 3 3 4 3 3 5 3 4 4 3 1 1 2 1 0 2 3 6 9 11 13 12 11 8 8 5 6 5 6 7 8 8 7 6 6 6 5 5 4 4 5 5 4 4 5 5 6 6 6 6 5 7 7 5 6 6 7 7 3 9 8 8 9 8 8 8 8 7 6 4 3 6 6 6 5
2 1 2 1 2 1 1 2 3 5 7 3 2 6 5 5 7 7 3 3 2 4 5 1 1 2 3 6 8 8 9 8 9 8 6 6 3 2 5 7 8 9 8 7 6 6 7 7 6 5 5 4 4 5 5 5 5 5 5 5 4 6 6 7 8 8 8 7 3 3 3 4 7 9 9 9 8 8 7 6 4 3 1 3 5 3
0 0 1 2 3 5 4 3 2 6 4 4 8 7 5 5 5 3 3 1 1 1 3 1 3 3 4 6 7 7 6 5 4 6 6 4 5 9 12 2 5 6 7 6 6 5 5 5 6 7 6 5 5 4 5 6 5 5 5 4 4 4 6 6 7 8 9 8 7 7 9 9 10 9 4 3 7 8 8 8 7 5 3 1 3 3
1 1 1 2 2 3 3 7 8 6 5 4 5 7 7 6 2 4 1 4 1 4 5 1 2 1 2 3 1 2 3 5 6 5 4 4 8 10 5 9 8 5 5 5 6 7 7 6 6 6 6 7 5 5 4 4 5 5 4 4 3 3 4 4 6 6 6 7 8 9 7 4 1 2 2 2 3 4 5 5 6 6 4 3 3 3
2 1 3 1 3 4 5 7 7 8 8 7 6 5 5 5 8 6 4 5 2 2 7 2 1 1 2 2 1 2 2 4 7 10 4 2 6 11 13 13 10 4 4 6 5 7 6 5 6 7 7 6 6 6 5 4 4 4 4 4 4 3 3 4 5 4 4 5 6 7 8 7 5 5 4 4 4 4 3 3 3 4 5 5 6 5
2 1 2 1 3 3 5 6 7 7 4 5 5 6 5 6 3 4 4 5 2 3 3 2 1 3 5 4 7 6 7 7 8 8 10 11 6 3 2 6 5 4 1 1 8 7 7 5 6 6 6 7 7 7 7 6 5 4 4 4 4 4 3 4 4 4 3 3 3 3 3 4 3 4 4 4 4 4 4 4 3 4 4 4 5 4
4 1 3 3 3 3 5 7 8 9 7 6 6 6 5 4 5 4 1 5 7 5 8 7 7 6 4 3 3 4 7 8 11 11 9 9 11 10 8 8 6 3 10 6 5 8 7 7 6 7 7 6 6 6 6 5 5 4 4 3 3 3 4 5 4 4 3 3 2 2 1 1 1 1 2 3 3 4 5 5 5 5 4 3 3 5
2 1 2 2 3 3 2 4 6 6 6 6 4 5 3 5 4 4 4 2 4 1 3 7 8 3 5 7 5 7 9 10 8 8 9 7 9 11 10 10 13 13 4 5 3 3 5 6 7 7 7 6 6 6 6 6 5 5 4 4 3 3 3 3 3 3 2 1 1 2 5 5 4 4 4 4 4 3 2 2 3 3 4 5 6 6
1 2 1 1 0 2 2 5 7 8 8 8 5 7 6 2 4 3 5 9 8 3 8 6 1 0 7 9 11 8 6 7 8 5 5 7 8 9 10 11 10 9 9 4 9 11 6 5 6 5 5 4 4 3 1 4 8 6 4 3 3 2 2 1 1 2 1 1 1 0 1 4 4 4 3 2 4 3 2 3 4 6 5 6 7 5
2 1 1 2 2 1 1 3 4 5 3 2 1 5 10 5 4 5 4 10 10 8 1 2 6 7 9 10 11 11 9 6 5 9 7 6 6 9 10 7 8 12 13 9 3 5 7 6 7 6 7 7 5 5 5 6 5 4 5 5 4 4 4 3 3 3 4 3 3 3 2 3 4 4 4 3 2 1 0 0 1 1 3 2 3 4
3 1 3 2 2 0 2 5 4 2 5 1 6 10 7 9 9 9 12 13 11 11 9 11 10 8 7 8 7 7 6 7 13 13 14 13 8 6 6 8 9 10 11 10 10 8 6 6 7 7 7 5 4 3 3 4 4 2 1 1 5 5 4 4 4 4 5 5 5 4 3 3 4 4 4 3 3 1 0 0 2 2 1 2 2 2
3 4 2 1 3 1 2 1 1 4 1 5 6 9 6 4 7 5 10 14 13 10 7 8 9 10 10 11 9 7 7 5 7 13 13 12 12 9 9 7 7 8 7 7 9 9 9 10 7 4 4 4 5 7 7 3 1 2 1 3 3 2 1 1 5 8 6 5 5 5 5 5 4 5 4 3 3 3 1 1 2 1 2 1 2 1
5 3 4 1 2 2 3 3 7 2 5 10 5 6 5 4 3 2 2 6 9 8 10 5 7 8 8 9 9 10 9 6 7 9 12 11 12 10 10 10 5 5 5 7 7 7 7 10 13 12 9 6 9 6 4 3 3 2 3 4 2 1 2 3 2 0 3 4 5 4 5 6 6 5 5 4 4 3 3 2 0 1 0 0 2 2
8 6 2 5 2 4 2 0 2 1 2 1 2 5 5 4 2 1 1 1 8 10 8 8 8 8 7 7 9 9 8 9 9 7 8 11 9 10 10 9 8 6 4 1 6 5 3 4 2 7 4 2 2 6 8 4 4 4 4 4 4 4 3 1 1 3 2 4 4 4 6 6 6 5 4 4 3 2 2 1 0 1 1 1 2 2
5 8 7 7 1 2 2 2 2 1 1 1 4 6 6 6 7 2 2 1 5 6 8 7 7 6 7 7 7 8 8 7 4 5 7 9 10 9 10 8 6 7 6 6 5 7 4 0 5 7 2 1 2 2 3 4 3 3 3 4 4 4 5 4 3 3 2 1 1 2 1 3 4 4 4 2 1 1 1 1 1 2 1 2 3 3
8 5 5 4 1 2 1 2 2 0 2 2 4 5 7 5 6 6 2 1 7 6 5 5 8 7 5 5 5 6 5 4 5 6 6 7 6 7 8 11 9 8 8 5 3 3 4 5 6 5 3 1 3 1 4 6 5 2 1 1 2 4 5 5 5 5 2 1 2 2 3 1 3 4 2 2 3 3 3 2 1 1 3 4 3 4
4 3 5 1 1 1 5 1 2 1 1 3 6 9 8 4 2 1 2 3 4 5 5 4 4 5 4 4 2 1 0 0 2 4 7 8 9 8 7 6 9 9 8 9 7 6 4 3 3 4 5 5 4 3 3 2 2 2 3 2 2 4 5 5 4 4 5 3 1 1 2 2 1 2 4 4 5 5 4 4 3 2 1 3 4 1
2 2 2 3 2 0 1 3 2 2 2 3 6 8 4 2 4 1 3 4 3 5 3 4 4 4 5 5 4 3 3 5 5 5 5 7 9 9 7 6 7 10 11 8 8 7 5 4 3 5 6 5 3 2 2 2 2 1 2 1 3 5 5 5 5 4 4 4 3 2 2 2 3 2 3 4 4 4 5 4 3 2 2 3 3 1
2 2 1 1 1 2 2 2 1 0 1 6 4 3 7 3 1 3 2 2 4 5 10 8 7 7 7 5 5 5 5 5 5 5 5 4 6 8 10 10 8 6 8 11 12 9 7 6 5 4 4 4 4 3 4 4 5 4 3 3 6 5 5 4 4 5 5 5 5 4 3 3 3 3 3 2 3 4 4 3 3 3 2 2 1 4
2 1 1 3 2 1 1 1 2 2 4 2 4 3 2 2 4 9 8 8 8 8 7 5 6 6 7 6 7 7 7 6 6 5 5 5 5 6 7 9 10 9 8 8 9 9 8 8 7 7 6 5 5 5 6 5 5 6 7 8 6 5 5 5 5 4 4 3 3 3 3 4 4 4 4 4 4 4 4 4 4 5 4 1 4 6
6 3 1 2 1 3 1 1 4 3 2 5 3 2 6 10 9 5 6 4 5 5 4 4 5 7 5 6 7 7 7 6 6 7 7 7 6 6 7 8 9 9 9 7 7 8 8 10 11 11 9 7 6 6 5 5 6 6 6 5 4 4 4 4 4 4 2 2 2 3 4 4 5 5 5 5 4 5 5 5 5 4 2 6 5 6
4 3 2 3 2 2 0 3 7 10 9 7 5 6 9 8 6 7 6 5 4 3 3 4 5 5 6 5 6 5 6 7 7 7 7 7 8 8 7 7 8 8 9 9 9 8 7 8 8 9 10 10 8 8 6 6 6 8 7 5 6 6 6 5 5 5 5 5 4 5 5 4 5 5 4 4 4 5 6 7 5 6 5 7 7 6
3 3 4 1 2 4 2 10 11 7 5 6 9 9 8 8 6 5 5 3 3 4 4 5 4 5 5 5 6 6 8 6 8 9 9 10 10 10 11 11 10 10 9 10 7 6 9 8 8 8 9 10 7 5 4 5 4 4 4 4 4 4 3 3 4 5 5 6 7 7 6 7 7 8 6 5 3 1 3 5 6 6 6 6 7 6
3 5 4 1 2 1 1 8 7 4 4 6 8 7 7 7 8 6 4 4 5 4 4 5 5 5 5 6 6 8 9 8 8 9 9 8 9 9 10 11 12 11 9 8 8 8 8 8 7 6 5 6 5 4 5 5 4 4 4 4 2 2 3 4 4 4 4 5 6 7 6 6 8 8 7 3 1 4 6 6 6 6 6 6 6 7
1 2 1 2 2 4 3 10 10 7 6 7 9 7 6 7 7 8 7 7 7 8 8 8 5 5 6 7 8 9 9 9 8 9 10 9 9 9 8 9 9 10 8 9 10 9 9 7 7 6 6 7 6 6 5 5 5 5 5 5 4 3 4 4 4 4 4 5 5 5 4 4 3 5 5 6 6 6 5 1 3 6 4 1 3 7
4 4 2 5 3 3 4 4 5 5 5 9 7 5 7 7 7 6 6 7 6 6 7 7 7 5 5 5 7 7 8 9 8 7 9 8 8 8 8 9 9 9 9 8 7 6 7 8 8 8 6 4 4 5 5 6 6 5 4 4 4 4 4 4 4 5 6 6 5 6 6 6 6 3 6 7 8 7 6 9 12 7 3 2 2 11
5 2 3 2 1 2 4 3 2 1 3 4 5 6 7 5 5 6 6 5 5 5 5 5 7 8 5 5 4 6 7 7 8 7 8 8 8 7 6 7 7 6 7 7 8 8 7 8 8 7 7 6 5 6 6 6 6 6 6 5 5 5 5 6 7 7 7 4 4 6 7 6 5 4 7 7 7 7 8 6 9 14 13 8 5 6
Wind_Direction
162 174 219 228 228 230 237 238 236 260 290 326 332 332 311 317 273 292 148 155 154 122 179 178 214 215 215 198 203 173 145 134 135 141 141 147 154 156 166 162 165 168 172 173 180 182 177 167 179 149 143 152 146 142 137 136 139 144 142 138 143 156 150 139 143 143 150 147 149 128 136 126 121 117 114 110 111 111 123 127 134 138 144 129 144 155
150 194 239 231 224 230 217 181 154 25 22 6 345 336 321 323 323 23 65 149 116 108 309 34 334 277 271 255 266 202 129 142 145 151 156 162 166 171 173 169 168 160 149 159 167 176 173 174 177 154 148 150 150 152 143 146 150 150 143 144 153 151 150 158 162 168 167 171 169 158 145 131 129 120 111 106 104 111 97 79 65 78 113 114 102 129
205 215 232 234 238 218 108 72 40 62 15 13 30 320 325 303 340 330 71 68 46 66 319 2 4 298 308 326 313 192 170 160 159 156 167 165 170 175 179 161 153 159 170 171 172 168 178 179 180 162 157 160 161 158 149 149 147 146 146 151 154 158 160 181 168 133 156 111 128 117 141 127 120 113 125 122 126 106 97 93 95 85 61 66 87 68
228 256 236 232 214 183 213 49 40 22 22 333 323 356 282 281 355 336 320 76 34 100 30 42 9 313 324 345 326 305 158 143 138 159 164 163 168 172 180 168 161 164 174 174 172 178 181 183 177 164 163 161 161 154 148 151 147 149 148 160 161 169 171 172 149 130 107 107 104 105 116 115 120 129 115 106 105 97 91 93 92 84 93 88 72 85
207 232 226 180 175 136 160 99 59 64 325 292 221 226 279 292 306 43 260 360 36 8 73 46 12 325 327 345 316 304 94 95 138 136 149 157 165 173 167 160 160 169 173 172 172 179 182 180 182 176 170 158 161 164 156 154 153 159 159 166 168 172 171 151 145 123 119 107 99 98 92 101 91 80 99 106 100 109 114 96 71 77 74 68 69 67
236 225 131 112 149 173 117 54 176 115 304 308 257 205 223 259 305 307 331 52 14 350 285 102 22 300 281 283 273 263 330 176 197 127 142 153 129 142 166 170 168 174 173 168 172 180 182 182 165 168 170 167 167 169 159 154 152 155 157 160 164 163 146 140 145 134 126 125 128 128 125 124 123 125 125 131 135 123 114 120 104 80 83 84 79 76
204 233 129 132 83 28 18 145 222 127 208 37 277 224 236 260 265 272 252 70 71 150 272 123 150 269 320 301 297 292 290 320 188 135 127 127 127 128 163 165 170 171 145 157 167 167 169 176 162 171 174 174 171 173 158 136 134 141 147 158 162 152 148 141 149 139 126 126 134 139 141 143 147 145 154 130 123 121 122 110 103 95 69 77 83 76
95 205 124 85 78 70 332 324 284 209 158 253 245 349 327 312 295 253 274 171 214 193 329 146 130 189 293 286 271 277 296 273 235 156 123 132 141 120 159 157 172 155 154 160 169 180 177 172 171 173 175 177 176 168 153 144 152 147 133 126 118 113 128 142 158 140 137 137 140 137 138 136 142 138 135 132 127 122 121 111 110 97 85 81 82 77
190 133 125 136 143 143 194 208 233 197 203 220 211 216 242 278 303 304 290 247 192 88 290 265 178 103 254 267 284 292 296 306 209 176 139 114 145 155 144 159 168 171 174 168 172 177 172 169 175 171 175 181 171 162 160 164 169 150 138 142 133 102 101 161 182 147 149 143 151 148 138 131 141 129 128 128 125 126 123 106 92 94 98 92 88 87
272 171 202 165 126 213 219 239 262 227 213 248 238 36 39 4 339 334 314 2 338 130 261 251 360 194 282 275 324 324 277 316 191 166 152 103 64 68 74 157 139 85 104 158 172 164 165 169 173 178 173 167 178 173 151 151 153 146 143 144 159 136 134 171 186 165 164 161 159 142 145 141 138 127 125 123 132 125 117 116 111 108 104 101 91 86
224 155 117 114 159 199 230 236 234 254 245 186 146 151 125 325 278 312 314 62 59 53 249 246 282 136 276 273 234 289 242 209 241 177 154 128 104 94 96 113 150 162 171 170 137 158 185 184 134 156 166 179 173 153 140 155 154 145 139 138 154 166 138 166 186 172 178 177 172 151 156 145 140 138 135 132 124 125 122 118 120 116 111 103 99 86
262 145 200 186 180 188 347 295 301 269 267 94 68 34 40 327 305 321 316 43 79 273 266 218 234 240 220 288 268 234 328 272 168 150 125 105 110 100 95 99 100 92 89 90 81 71 75 86 132 143 178 179 180 160 151 150 129 110 88 94 109 300 150 149 193 180 189 187 174 157 159 148 147 144 143 144 143 145 138 137 133 124 108 99 97 96
288 269 203 270 153 169 204 306 312 302 338 265 53 49 79 282 38 328 23 347 224 210 257 40 27 358 258 215 223 256 105 45 48 144 128 122 102 100 97 94 89 95 96 96 92 88 77 94 110 164 191 180 174 188 173 116 105 122 142 158 169 193 186 163 174 178 194 198 187 168 163 154 149 146 146 146 146 152 143 141 132 129 126 121 110 114
282 290 278 234 162 186 159 143 261 307 301 315 143 127 106 99 210 247 256 188 285 309 300 101 120 224 242 296 304 302 290 173 108 95 112 115 110 100 103 90 81 82 83 79 76 64 63 53 18 347 182 191 185 190 152 136 150 164 169 166 163 165 120 135 155 162 191 208 204 189 169 159 151 149 150 153 151 157 147 144 143 141 142 139 142 134
2 343 293 282 274 162 190 173 177 193 200 230 182 157 183 156 152 191 161 190 212 208 286 301 95 238 288 257 266 279 90 57 59 84 95 93 101 104 88 83 81 75 70 74 64 65 46 25 356 37 37 41 202 175 156 165 165 121 78 114 109 68 17 53 101 78 45 5 302 260 186 166 153 154 154 157 159 158 148 150 145 146 144 141 145 140
218 234 243 206 175 160 181 195 192 252 292 266 230 173 101 209 139 146 195 165 217 343 343 327 179 174 197 228 253 274 108 100 101 99 82 71 69 76 80 80 78 74 71 63 58 33 11 332 9 52 59 61 55 88 107 105 83 65 79 92 91 73 40 338 117 127 110 151 282 271 203 175 157 155 153 155 159 164 153 154 150 154 153 151 146 146
232 250 278 225 151 177 187 61 268 110 149 270 19 97 203 170 115 121 359 234 80 50 266 212 324 318 346 359 253 180 111 126 113 114 113 106 77 83 86 85 79 77 76 65 55 36 14 24 51 97 90 93 100 104 113 108 97 130 160 166 142 133 128 162 245 146 137 158 243 260 219 175 161 161 159 160 166 168 162 156 153 154 157 147 146 151
142 260 301 342 188 198 126 170 264 90 115 77 356 251 147 129 137 121 200 49 197 194 258 183 209 288 187 278 305 110 136 184 122 137 128 106 100 96 101 96 94 92 85 78 68 36 36 35 39 42 74 88 112 127 137 145 156 182 175 165 147 146 156 149 189 174 153 174 213 233 220 191 168 163 163 164 167 163 161 162 149 146 145 154 156 154
40 330 312 339 322 332 121 207 287 328 86 340 236 21 37 360 348 323 98 201 260 245 263 271 204 228 190 215 325 239 211 206 167 146 118 117 109 109 105 101 100 92 77 73 53 43 38 37 36 42 46 58 76 124 144 147 148 170 177 168 157 151 153 151 178 203 177 180 205 206 197 185 178 168 162 172 169 157 161 163 149 151 154 147 148 146
35 189 303 325 354 346 359 99 211 295 329 259 271 315 197 126 176 134 184 192 126 244 183 303 246 264 316 189 222 204 284 204 139 125 134 130 125 123 119 112 103 96 103 93 67 52 46 45 52 58 64 58 55 51 118 143 153 163 171 169 169 156 157 163 185 185 179 197 196 188 181 178 179 182 168 173 168 159 161 162 153 139 143 151 150 154
337 112 236 288 347 16 337 9 183 155 277 3 51 310 349 5 162 116 339 56 173 189 172 209 352 315 290 307 323 9 14 338 118 118 125 112 125 123 120 117 108 108 106 106 100 76 65 56 47 52 52 60 55 53 54 83 137 154 158 169 165 162 164 168 180 178 199 188 195 164 169 173 169 175 158 162 171 157 162 160 156 145 144 140 149 150
67 14 209 310 357 330 276 277 335 0 91 161 169 195 180 58 29 52 294 356 49 85 201 90 234 256 270 193 17 340 7 73 85 116 84 46 105 111 114 110 118 117 118 122 123 110 81 63 61 54 56 57 60 59 63 61 66 80 135 155 157 152 156 168 178 170 175 176 157 162 176 146 145 142 133 129 135 122 108 84 72 84 75 95 127 157
139 169 93 318 240 269 290 313 322 322 335 292 161 209 104 126 102 93 106 274 319 267 183 119 130 273 248 340 11 6 360 64 139 97 86 100 97 111 112 114 116 123 128 128 129 130 126 97 82 79 77 70 68 63 62 65 70 73 73 75 95 122 154 173 158 137 159 154 163 167 153 131 124 112 109 118 116 99 94 104 108 111 114 118 109 92
15 75 26 294 300 307 320 318 308 314 318 340 345 358 58 130 167 163 173 195 174 225 128 110 190 251 290 340 351 33 38 23 7 115 131 132 125 109 111 118 120 116 116 120 124 120 112 112 98 87 79 77 77 74 69 70 73 76 76 80 78 68 56 70 81 43 6 354 34 135 112 103 99 95 94 90 92 95 94 82 85 110 119 129 122 106
59 300 127 264 357 338 333 326 340 351 31 43 291 320 352 51 51 119 77 23 38 260 151 110 253 200 271 345 12 37 36 41 59 29 45 76 89 101 111 125 122 120 122 128 131 131 125 115 116 112 105 94 89 90 85 82 82 80 80 83 87 88 92 83 84 113 111 110 335 356 115 110 104 103 102 106 105 107 114 117 120 117 127 121 103 115
106 227 76 115 176 167 288 68 345 338 340 312 346 345 349 30 56 32 25 13 77 312 29 95 149 257 286 6 25 10 42 47 72 63 27 56 40 68 155 139 131 131 141 147 148 140 145 150 136 121 115 112 107 108 103 92 87 88 89 90 91 90 83 91 100 101 104 107 130 330 0 83 117 125 130 126 120 120 118 116 111 106 65 123 129 133
100 40 110 154 163 197 214 247 318 359 343 0 321 325 319 7 41 75 109 86 207 206 6 252 147 218 52 48 36 19 11 53 101 122 127 106 59 31 348 343 131 133 135 126 121 123 113 111 133 134 132 127 125 119 114 111 102 95 94 82 81 92 95 98 98 98 98 102 90 53 22 17 16 12 27 85 129 127 122 123 130 129 159 130 117 137
66 25 311 14 282 243 290 307 320 325 294 296 326 308 329 334 13 28 35 256 162 56 327 249 82 57 204 116 117 315 35 4 25 70 112 116 120 114 106 326 342 86 94 103 93 88 94 91 97 113 135 140 142 129 109 104 108 110 106 108 97 75 77 81 91 99 103 102 105 113 101 90 137 128 148 106 100 119 136 143 147 164 154 127 136 166
141 151 263 228 283 283 283 286 286 287 290 288 277 279 301 340 354 349 290 259 257 222 222 255 4 332 310 44 37 339 137 80 51 33 38 128 146 155 161 184 194 153 130 116 109 107 92 83 76 76 87 106 109 108 107 97 89 79 75 78 82 90 105 90 90 88 99 106 115 136 149 160 157 143 137 125 121 111 106 124 153 159 166 167 181 195
82 223 244 274 300 341 335 341 335 317 309 312 314 319 305 316 319 14 355 345 321 242 228 226 100 58 28 351 46 46 28 52 54 47 49 49 30 345 221 192 154 105 31 140 134 131 125 114 97 94 93 93 94 93 94 97 98 99 101 80 65 78 83 100 102 106 101 106 130 136 136 133 126 122 120 128 140 145 146 155 168 178 186 185 183 191
102 287 85 48 41 349 347 333 316 306 301 294 305 316 335 5 11 344 60 25 40 22 15 41 73 65 337 304 23 26 50 44 47 49 47 33 33 39 14 338 315 199 171 205 186 139 138 131 116 98 87 92 103 113 118 123 113 109 98 95 77 59 44 70 77 86 96 109 139 158 114 96 133 124 131 161 154 147 162 169 166 180 206 215 206 203
88 219 60 67 50 316 315 309 315 343 346 354 344 338 19 39 34 357 54 319 89 13 46 49 50 14 313 356 38 34 44 44 50 59 50 43 48 47 46 27 19 353 302 136 134 112 126 131 128 118 111 107 105 102 108 115 120 107 119 113 91 54 55 55 46 57 52 65 89 114 143 159 152 137 165 155 183 169 195 161 195 203 205 199 207 214
141 108 79 97 357 237 275 341 346 0 8 2 0 358 346 41 83 55 47 34 14 29 61 43 314 133 42 30 27 12 48 43 40 37 63 56 60 55 41 42 30 14 10 182 160 161 155 143 134 126 113 101 100 105 98 149 133 142 146 141 169 117 96 110 109 113 118 272 241 277 169 143 134 143 136 118 130 141 144 166 178 193 193 208 217 201
67 73 216 148 153 200 39 351 16 25 1 251 291 17 37 14 30 54 43 47 33 53 134 78 43 37 45 40 41 12 9 21 46 38 54 49 63 54 56 52 47 41 31 39 76 48 71 79 84 79 90 100 96 98 91 93 114 143 163 175 175 161 183 164 193 179 187 219 242 222 164 119 130 134 145 124 91 72 32 63 37 248 250 221 178 190
180 157 239 157 105 193 39 36 27 283 231 197 33 32 27 36 37 80 63 42 38 30 33 44 41 41 47 51 40 16 0 21 47 46 36 26 28 50 59 58 48 56 52 44 35 27 33 46 54 64 68 78 78 58 71 121 129 151 217 156 169 177 172 200 205 197 201 203 217 191 182 155 128 122 124 126 132 137 131 305 298 315 268 204 207 176
168 182 192 72 143 61 70 126 138 226 253 85 65 32 3 52 28 42 48 32 15 21 26 42 35 30 30 31 21 4 354 356 62 47 31 19 19 24 37 56 58 55 59 67 57 25 21 17 11 35 41 31 32 48 34 26 43 73 318 266 160 157 269 195 177 197 208 201 204 189 190 169 160 148 157 169 160 151 181 186 188 214 280 237 213 212
199 175 117 238 107 153 170 157 211 329 346 6 0 3 18 39 358 55 98 39 8 9 17 26 38 32 33 25 9 358 347 14 52 39 25 12 11 12 43 47 45 59 67 60 62 43 18 20 9 347 349 12 356 18 41 25 40 22 10 7 20 148 233 274 316 308 210 171 191 194 180 165 158 161 168 165 158 177 196 186 279 299 234 192 239 215
204 191 205 125 276 123 135 56 348 24 265 340 8 349 356 359 38 11 106 87 13 359 7 22 30 25 30 23 16 358 356 43 29 1 2 2 5 9 30 26 13 23 18 142 137 145 145 125 206 271 272 39 33 358 350 4 35 27 19 356 352 4 343 299 279 291 248 208 211 212 169 156 149 161 169 150 166 192 212 196 157 281 231 217 241 238
72 100 123 131 159 61 75 124 186 194 225 220 313 348 338 326 345 323 80 77 335 342 1 8 15 20 26 15 9 14 32 40 345 340 348 0 358 8 8 8 9 2 355 18 29 30 34 268 198 215 173 74 337 313 291 330 40 52 8 342 345 356 347 352 331 322 320 303 74 104 139 156 139 147 142 141 182 176 166 182 207 245 317 290 248 228
43 20 50 80 86 124 131 147 238 76 106 337 318 337 332 327 16 60 8 283 333 330 340 13 6 6 1 21 31 20 54 27 323 308 332 348 357 360 4 347 347 349 340 346 41 35 6 342 6 8 46 220 239 267 305 291 278 243 237 249 328 325 310 299 297 281 297 326 3 29 34 76 135 147 150 181 215 188 190 198 153 269 290 296 269 257
13 355 44 74 154 175 170 235 87 68 308 360 326 309 333 333 36 64 240 315 291 309 326 21 352 335 347 348 49 28 314 157 302 326 349 345 350 346 346 344 333 336 340 336 331 343 348 340 353 340 323 302 274 268 254 238 199 228 225 213 218 257 270 274 276 293 299 316 360 351 331 314 243 225 241 206 198 194 186 179 196 234 271 285 302 45
13 71 313 63 32 40 157 122 199 111 253 249 276 289 308 20 58 277 246 214 251 299 315 341 325 311 352 10 17 17 329 348 351 3 357 342 332 327 327 330 335 329 325 326 326 329 332 318 313 312 309 294 305 315 322 350 335 273 274 267 251 239 230 238 259 283 311 316 310 293 294 281 287 245 228 222 192 176 186 202 180 187 238 263 281 108
207 72 299 59 267 48 51 61 20 294 263 190 261 349 32 84 202 203 241 290 313 355 8 354 3 359 28 0 356 353 349 344 338 325 319 325 327 318 319 320 318 314 313 316 316 316 324 322 317 305 279 284 298 312 301 305 291 278 260 253 241 236 234 228 231 247 262 276 277 271 265 279 279 279 286 241 189 162 190 213 197 230 224 235 78 131
41 105 263 58 22 99 40 54 90 157 265 316 45 72 308 97 8 22 31 13 15 26 3 358 357 359 353 2 349 337 330 327 322 311 306 294 286 286 292 300 301 300 297 289 288 297 304 300 297 291 285 283 282 283 280 268 265 269 268 259 252 243 233 230 242 230 214 215 227 249 271 265 269 263 260 251 232 205 199 216 208 211 215 173 147 141
342 81 40 123 303 87 37 115 217 197 90 68 81 81 45 45 44 40 52 43 25 355 355 358 334 334 344 344 336 332 326 316 309 313 313 304 295 282 277 275 275 280 282 276 276 281 285 284 283 285 285 276 272 273 268 249 244 247 250 247 240 250 258 259 240 209 205 234 255 267 270 269 264 260 256 255 231 226 222 225 210 177 121 124 131 130
27 40 17 75 340 62 137 90 54 35 20 15 31 51 58 36 29 42 36 11 341 328 335 328 309 313 327 325 327 320 315 312 318 315 313 311 311 309 308 309 307 302 294 293 292 284 271 271 273 275 275 281 282 276 269 261 241 243 236 234 233 238 245 236 224 226 231 229 229 231 230 241 253 249 241 239 234 232 223 213 181 148 150 133 141 139
22 17 55 76 300 62 287 33 34 7 357 26 38 25 25 28 32 24 360 348 323 314 317 307 306 317 320 339 327 316 310 314 310 303 302 304 305 306 304 301 296 293 294 295 292 310 317 312 297 287 280 275 274 286 301 303 297 277 286 289 293 283 266 244 245 249 239 237 234 229 226 234 240 246 252 254 228 94 111 116 126 138 136 137 130 132
342 30 29 53 53 104 217 52 13 358 358 33 35 21 6 357 357 354 335 326 321 323 338 344 353 348 347 334 320 311 303 302 297 294 291 287 287 291 294 294 293 293 291 288 295 300 297 294 295 303 310 308 299 301 298 295 300 305 308 301 299 306 323 315 296 265 261 260 251 240 223 225 238 241 244 253 58 90 118 119 122 131 142 139 137 140
314 45 30 15 35 314 13 27 7 18 24 18 358 352 2 354 344 342 354 358 358 357 348 342 349 342 346 323 321 311 307 304 298 292 291 290 287 284 283 286 288 289 292 299 300 298 294 290 286 283 287 285 284 279 274 273 274 279 286 288 289 303 314 301 294 282 258 252 249 247 232 210 175 181 125 93 78 42 18 25 136 138 121 98 157 152
42 40 333 43 26 17 62 330 31 28 314 326 334 343 348 342 348 341 360 342 353 355 343 336 332 334 320 316 319 323 318 315 315 322 314 310 302 300 298 295 293 293 292 290 290 298 306 303 294 288 283 281 289 292 284 275 271 270 266 266 276 277 273 269 275 279 273 254 230 223 217 216 205 183 128 131 124 114 76 50 46 35 121 127 146 155
107 53 65 84 109 273 314 355 59 203 247 261 308 334 341 344 355 347 342 341 349 338 324 330 323 317 320 320 324 309 304 309 316 315 309 309 304 298 295 305 314 322 322 319 312 304 295 290 289 288 282 277 273 267 268 269 268 267 263 254 245 247 256 257 255 253 242 222 228 242 219 194 180 130 126 137 133 125 119 86 32 34 34 49 70 128